• Join FlightAware (Why Join?)
  • Login
  • US Flag GB Flag 
21:06 EDT


 

Airport Tracker/Info


-or-


 

Live Flight TrackerFlight Track Log ✈ CTL18 ✈ 25-Apr-2013 ✈ KYIP - KBKL

Flight Track Log - Related Links

Times and Time Zones

All times are in EDT time to prevent confusion due to time zone crossing. See the CTL18 flight status page for this flight to view local times or setup timezone preferences in your user account.

Time Position Orientation Groundspeed Altitude Reporting Facility
EDT Latitude Longitude Course Direction KTS MPH feet Rate Location/Type
20:58 42.2086 -83.5744 230° Southwest 117 135 1,900  Level Cleveland Center
20:59 42.1828 -83.6039 220° Southwest 136 157 2,700 780 Climbing Cleveland Center
21:00 42.1547 -83.6392 223° Southwest 137 158 3,600 780 Climbing Cleveland Center
21:01 42.1269 -83.6686 218° Southwest 143 165 4,200 720 Climbing Cleveland Center
21:02 42.0897 -83.6611 171° South 150 173 5,000 900 Climbing Cleveland Center
21:03 42.0567 -83.6483 164° South 151 174 5,800 840 Climbing Cleveland Center
21:04 42.0353 -83.5914 117° Southeast 154 177 6,700 540 Climbing Cleveland Center
21:05 41.9922 -83.5586 150° Southeast 173 199 7,000 120 Climbing Cleveland Center
21:06 41.9622 -83.5125 131° Southeast 187 215 7,000 -60 Level Cleveland Center
21:07 41.9450 -83.4475 110° East 191 220 6,900  Descending Cleveland Center
21:08 41.9281 -83.3769 108° East 191 220 7,000  Climbing Cleveland Center
21:09 41.9131 -83.3094 107° East 191 220 7,000  Level Cleveland Center
21:10 41.8978 -83.2417 107° East 189 217 7,000 -60 Level Cleveland Center
21:11 41.8808 -83.1686 107° East 191 220 6,900  Descending Cleveland Center
21:12 41.8575 -83.0839 110° East 190 219 7,000  Climbing Cleveland Center
21:13 41.8383 -83.0081 109° East 191 220 7,000  Level Cleveland Center
21:14 41.8250 -82.9544 108° East 191 220 7,100 60 Climbing Cleveland Center
21:15 41.8153 -82.9122 107° East 193 222 7,100  Level Cleveland Center
21:16 41.8000 -82.8422 106° East 192 221 7,100  Level Cleveland Center
21:17 41.7808 -82.7664 109° East 192 221 7,100  Level Cleveland Center
21:18 41.7633 -82.6961 108° East 190 219 7,100 -240 Level Cleveland Center
21:19 41.7436 -82.6314 112° Southeast 196 226 6,700 -540 Descending Cleveland Center
21:20 41.7094 -82.5664 125° Southeast 205 236 6,100 -720 Descending Cleveland Center
21:21 41.6831 -82.5100 122° Southeast 205 236 5,400 -720 Descending Cleveland Center
21:22 41.6550 -82.4422 119° Southeast 205 236 4,800 -540 Descending Cleveland Center
21:23 41.6356 -82.3639 108° East 196 226 4,300 -360 Descending Cleveland Center
21:24 41.6242 -82.2942 102° East 190 219 4,100 -120 Descending Cleveland Center
21:25 41.6125 -82.2244 103° East 187 215 4,100  Level Cleveland Center
21:26 41.6011 -82.1547 102° East 188 216 4,100 -60 Level Cleveland Center
21:27 41.5914 -82.0964 103° East 187 215 4,000 -60 Descending Cleveland Center
21:28 41.5797 -82.0267 103° East 187 215 4,000  Level Cleveland Center
21:29 41.5806 -81.9656 89° East 175 201 4,100  Climbing Cleveland Center
21:30 41.5792 -81.8989 92° East 186 214 4,000 -360 Descending Cleveland Center
21:31 41.5758 -81.8267 94° East 195 224 3,400 -660 Descending Cleveland Center
21:32 41.5789 -81.7517 87° East 197 227 2,700 -900 Descending Cleveland Center
21:33 41.5503 -81.6875 121° Southeast 177 204 1,600 -1,140 Descending Cleveland Center
21:35 41.5303 -81.6530 217° Southwest  Level FlightAware Approximate
21:42 41.5167 -81.6667 217° Southwest  Level FlightAware Approximate